Simultaneous Nadir Overpasses (SNOs) Predictions

Prediction of SNOs between GOES-17 and LANDSAT-8 Satellite Orbit:

Table of predicted SNOs for the next 14.0 days since TLE Epoch: 5/23/2025
Index Date Time (GOES-17) GOES-17 Lat,Lon LANDSAT-8 Lat,Lon Distance(km) Time Diff (sec)
1 05/24/2025 05:15:15 -0.02,-104.39 -0.27,-105.51 127.53 80
2 05/26/2025 05:00:24 -0.02,-104.39 0.35,-102.55 209.01 80
3 05/26/2025 17:21:40 0.02,-104.44 0.73,-107.71 371.28 80
4 05/28/2025 17:09:29 0.01,-104.44 0.10,-104.75 35.17 80
5 05/30/2025 16:59:58 0.00,-104.44 -0.54,-101.79 301.35 80
6 05/31/2025 05:21:21 0.00,-104.39 -0.57,-106.98 294.61 80
7 06/02/2025 05:06:30 0.01,-104.40 0.08,-104.02 42.64 80
8 06/04/2025 04:54:20 0.01,-104.41 0.74,-101.07 380.47 80
9 06/04/2025 17:15:34 -0.01,-104.46 0.38,-106.22 199.77 80
10 06/06/2025 17:06:03 -0.01,-104.48 -0.30,-103.27 138.37 80
